Location: Peebles
(55.6412°N, 3.1714°W)
Time: 10:19:15
(UTC+01:00)

SL-14 R/B - Pass Details

Date: 26 September 2021
Orbit: 518 x 554 km, 82.4° (Epoch: 20 October)

Event Time Altitude Azimuth Distance (km) Brightness Sun altitude
Rises 20:30:25 0° 347° (NNW) 2,720 7.3 -13.3°
Reaches altitude 10° 20:32:36 10° 348° (NNW) 1,816 6.4 -13.6°
Maximum altitude 20:36:36 86° 76° (ENE) 545 3.2 -14.2°
Drops below altitude 10° 20:40:32 10° 168° (SSE) 1,779 5.6 -14.7°
Enters shadow 20:40:48 - 168° (SSE) 1,889 5.7 -14.7°
